www.pogodaiklimat.ru

Погода и климат >> Архив погоды >> Таиланд >> Ko Lanta


ПОГОДА в Ko Lanta

  • Прогноз погоды в Ko Lanta
  • Монитор погоды в Ko Lanta
  • Климат города

АРХИВ ПОГОДЫ в Ko Lanta

Время (UTC), дата Ветер
(напр.,м/с)
 
Видим.   Явления Облачность Т
(С)
Тd
(С)
f
(%)
Тe
(С)
Тes
(С)
Комфортность P
(гПа)
Po
(гПа)
Тmin
(С)
Tmax
(С)
R
(мм)
R24
(мм)
S
(см)
12 11.12 В 3 10 км 5/3 600 м
[Cu hum Ac lent Cs]
+29.0 +24.7 78 +41 +41 опасность
перегрева
1010.7 1009.9 +31.7
15 11.12 В 3 10 км 5/3 600 м
[Cu hum Ac lent Cs]
+27.2 +23.7 81 +37 +37 очень
душно
1012.8 1012.0
18 11.12 В 2 10 км 3/1 600 м
[Cu hum Cs]
+25.6 +23.2 87 +34 +34 очень
душно
1012.3 1011.5
21 11.12 СВ 5 10 км 3/1 600 м
[Cu hum Cs]
+25.4 +23.3 88 +34 +34 очень
душно
1010.7 1009.9
00 12.12 штиль 0 10 км 3/1 600 м
[Cu hum Cs]
+24.8 +23.5 92 +33 +34 очень
душно
1012.3 1011.5 +24.7
03 12.12 В 2 10 км 3/1 600 м
[Cu hum Cs]
+28.7 +24.7 79 +41 +50 опасность
перегрева
1013.7 1012.9
06 12.12 СВ 2 10 км 5/3 600 м
[Cu hum Ac lent Cs]
+31.5 +25.3 70 +46 +55 опасность
перегрева
1011.2 1010.4
09 12.12 З 3 10 км 8/3 600 м
[Cu hum Ac lent Cs]
+28.8 +25.8 84 +43 +45 опасность
перегрева
1009.0 1008.1
12 12.12 штиль 0 10 км 8/3 600 м
[Cu hum Ac lent Cs]
+26.1 +25.4 96 +38 +38 очень
душно
1010.2 1009.4 +32.0
15 12.12 штиль 0 10 км 8/3 600 м
[Cu hum Ac lent Cs]
+24.8 +24.6 99 +35 +35 очень
душно
1012.8 1011.9
18 12.12 штиль 0 10 км 8/3 600 м
[Cu hum Ac lent Cs]
+24.3 +24.1 99 +33 +33 очень
душно
1011.9 1011.1
21 12.12 штиль 0 10 км 8/3 600 м
[Cu hum Ac lent Cs]
+23.9 +23.7 99 +32 +32 очень
душно
1010.9 1010.1
00 13.12 штиль 0 10 км 5/1 600 м
[Cu hum Ac lent Cs]
+23.9 +23.7 99 +32 +33 очень
душно
1012.1 1011.3 +23.7
03 13.12 штиль 0 10 км 5/1 600 м
[Cu hum Ac lent Cs]
+29.8 +24.4 73 +42 +52 опасность
перегрева
1013.3 1012.5
06 13.12 З 2 10 км 5/1 600 м
[Cu hum Ac lent Cs]
+30.0 +25.9 79 +45 +56 опасность
перегрева
1011.3 1010.5
09 13.12 штиль 0 10 км 5/1 600 м
[Cu hum Ac lent Cs]
+30.3 +25.8 77 +45 +50 опасность
перегрева
1008.8 1008.0
12 13.12 штиль 0 10 км 5/1 600 м
[Cu hum Ac lent Cs]
+26.4 +25.4 94 +38 +38 очень
душно
1009.8 1009.0 +31.0
15 13.12 штиль 0 10 км 4/1 600 м
[Cu hum Cs]
+24.8 +24.6 99 +35 +35 очень
душно
1012.0 1011.2
18 13.12 штиль 0 10 км 4/1 600 м
[Cu hum Cs]
+24.3 +24.1 99 +33 +33 очень
душно
1011.3 1010.5
21 13.12 штиль 0 10 км 4/1 600 м
[Cu hum Cs]
+24.2 +24.0 99 +33 +33 очень
душно
1010.2 1009.4
00 14.12 штиль 0 10 км 3/1 600 м
[Cu hum Cs]
+24.3 +24.1 99 +33 +34 очень
душно
1011.5 1010.7 +24.1
03 14.12 штиль 0 10 км 3/1 600 м
[Cu hum Cs]
+30.0 +25.5 77 +44 +56 опасность
перегрева
1013.0 1012.2
06 14.12 штиль 0 10 км 3/1 600 м
[Cu hum Cs]
+31.2 +26.2 75 +47 +66 опасность
перегрева
1011.2 1010.4
09 14.12 штиль 0 10 км 3/1 600 м
[Cu hum Cs]
+30.6 +25.5 74 +45 +51 опасность
перегрева
1009.2 1008.4
12 14.12 штиль 0 10 км 3/1 600 м
[Cu hum Cs]
+26.3 +25.3 94 +38 +38 очень
душно
1010.0 1009.2 +31.8
15 14.12 штиль 0 10 км 3/1 600 м
[Cu hum Cs]
+25.2 +25.0 99 +36 +36 очень
душно
1011.8 1011.0
18 14.12 штиль 0 10 км 3/1 600 м
[Cu hum Cs]
+25.0 +24.8 99 +35 +35 очень
душно
1010.7 1009.9
21 14.12 штиль 0 10 км 3/1 600 м
[Cu hum Cs]
+24.9 +24.7 99 +35 +35 очень
душно
1010.1 1009.3
00 15.12 штиль 0 10 км 3/1 600 м
[Cu hum Cs]
+25.2 +25.0 99 +36 +36 очень
душно
1011.0 1010.2 +24.7
03 15.12 штиль 0 10 км 3/1 600 м
[Cu hum Cs]
+31.1 +27.2 80 +49 +61 опасность
перегрева
1012.2 1011.4
06 15.12 Ю 3 10 км 5/3 600 м
[Cu hum Ac lent Cs]
+31.1 +27.5 81 +50 +58 опасность
перегрева
1008.3 1007.5
09 15.12 Ю 3 10 км 5/3 600 м
[Cu hum Ac lent Cs]
+31.1 +27.5 81 +50 +52 опасность
перегрева
1008.3 1007.5
12 15.12 штиль 0 10 км гроза, ливневой дождь 10/3 600 м
[Cb cap Ac lent Cs]
+26.1 +25.8 98 +38 +38 очень
душно
1010.6 1009.8 +31.5 3
15 15.12 штиль 0 10 км 5/3 600 м
[Cu hum Ac lent Cs]
+25.5 +25.3 99 +37 +37 очень
душно
1012.3 1011.5
18 15.12 штиль 0 10 км 5/3 600 м
[Cu hum Ac lent Cs]
+25.2 +25.0 99 +36 +36 очень
душно
1011.8 1011.0
21 15.12 штиль 0 10 км 3/1 600 м
[Cu hum Cs]
+24.5 +24.3 99 +34 +34 очень
душно
1010.2 1009.3
00 16.12 штиль 0 10 км 3/1 600 м
[Cu hum Cs]
+25.2 +25.0 99 +36 +36 очень
душно
1011.1 1010.2 +24.2
03 16.12 В 2 10 км 3/1 600 м
[Cu hum Cs]
+28.5 +26.4 88 +43 +52 опасность
перегрева
1012.3 1011.5
06 16.12 З 2 10 км 5/3 600 м
[Cu med, cong Ac lent Cs]
+31.4 +27.5 80 +50 +60 опасность
перегрева
1010.7 1009.9
09 16.12 З 1 10 км 5/3 600 м
[Cu med, cong Ac lent Cs]
+30.8 +26.9 80 +48 +52 опасность
перегрева
1008.7 1007.9
12 16.12 штиль 0 10 км {гроза, дождь} 5/3 600 м
[Cu hum Ac lent Cs]
+24.1 +23.9 99 +33 +33 очень
душно
1010.3 1009.5 +31.7 36
15 16.12 штиль 0 10 км 3/1 600 м
[Cu hum Cs]
+24.7 +24.7 100 +35 +35 очень
душно
1012.8 1012.0
18 16.12 штиль 0 10 км 3/1 600 м
[Cu hum Cs]
+25.1 +24.9 99 +36 +36 очень
душно
1011.9 1011.1
00 17.12 штиль 0 10 км 5/1 600 м
[Cu hum Ac lent Cs]
+23.5 +23.5 100 +32 +32 очень
душно
1010.7 1009.9 +22.8 36
03 17.12 штиль 0 10 км 5/3 600 м
[Cu hum Ac lent Cs]
+29.7 +26.3 82 +45 +54 опасность
перегрева
1014.3 1013.4
06 17.12 В 6 10 км 5/3 600 м
[Cu hum Ac lent Cs]
+29.8 +25.4 77 +44 +47 опасность
перегрева
1012.0 1011.2
09 17.12 В 5 10 км 8/3 600 м
[Cu med, cong Ac lent Cs]
+28.0 +25.1 84 +40 +42 очень
душно
1009.8 1009.0
12 17.12 СВ 4 10 км 8/3 600 м
[Cu hum Ac und Cs]
+26.8 +24.2 86 +37 +37 очень
душно
1011.2 1010.3 +31.7
15 17.12 СВ 4 10 км 5/3 600 м
[Cu hum Ac lent Cs]
+26.4 +24.4 89 +37 +37 очень
душно
1013.2 1012.4
18 17.12 СВ 2 10 км 5/3 600 м
[Cu hum Ac lent Cs]
+25.5 +25.1 98 +37 +37 очень
душно
1012.4 1011.6
21 17.12 штиль 0 10 км 5/3 600 м
[Cu hum Ac lent Cs]
+23.4 +23.2 99 +33 +33 очень
душно
1011.3 1010.5
00 18.12 штиль 0 10 км 8/3 600 м
[Cu Sc Ac lent Cs]
+23.8 +23.6 99 +32 +32 очень
душно
1011.7 1010.9 +22.7
03 18.12 В 3 10 км 9/3 600 м
[Cu Sc Ac lent Cs]
+26.3 +24.6 90 +37 +41 очень
душно
1013.7 1012.8
06 18.12 штиль 0 10 км 9/3 600 м
[Cu Sc Ac lent Cs]
+28.1 +24.8 82 +40 +49 очень
душно
1012.7 1011.9
09 18.12 СВ 3 10 км 9/3 600 м
[Cu hum Ac lent Cs]
+26.8 +24.5 87 +38 +39 очень
душно
1010.7 1009.8

 

Местоположение метеостанции Ko Lanta (Таиланд): широта 7.53 долгота 99.05 высота над уровнем моря 3 м.

В архиве по умолчанию представлена погода в Ko Lanta за последнюю неделю. Архивные данные за месяц целиком и за предыдущие месяцы, начиная с января 2011 года, Вы можете получить, выбрав интересующий диапазон дат из раскрывающегося списка и нажав кнопку "Ввод!".

Внимание! Время в таблицах - всемирное. Для получения местного времени необходимо прибавить поправку, которая в Ko Lanta равна 7 ч.

Смотрите также архив погоды в соседних городах и на ближайших метеорологических станциях:

Погода в Krabi (Таиланд) (62 км)
Погода в Trang (Таиланд) (63 км)
Погода в Phuket (Таиланд) (82 км)
Погода в Phuket Airport (Таиланд) (105 км)
Погода в Chawang (Таиланд) (112 км)
Погода в Prasang (Таиланд) (118 км)
Погода в Nakhonsi Thammarat (Таиланд) (120 км)
Погода в Phatthalung Agromet (Таиланд) (124 км)
Погода в Nakhonsi Thammarat 2 (Таиланд) (149 км)
Погода в Satun (Таиланд) (150 км)

Пояснения к столбцам:

Ветер - указаны скорость ветра в м/с - средняя за 10 мин, порывы в срок и между сроками (в фигурных скобках) и направление, откуда дует ветер: С - северный, СВ - северо-восточный, В - восточный, ЮВ - юго-восточный, Ю - южный, ЮЗ - юго-западный, З - западный, СЗ - северо-западный.
Видимость - горизонтальная дальность видимости в метрах или километрах. При видимости от 1 до 10 км при отсутствии осадков обычно наблюдается дымка, при ухудшении видимости до 1 км и менее - туман. В сухую погоду видимость может ухудшаться дымом, пылью или мглою.
Явления - указаны атмосферные явления, наблюдавшиеся в срок или в последний час перед сроком; фигурными скобками обозначены явления, наблюдавшиеся между сроками (за 1-3 часа до срока); квадратными скобками обозначены град или гололедные отложения с указанием их диаметра в мм.
Облачность - указаны через наклонную черту общая и нижняя облачность в баллах и высота нижней границы облаков в метрах; квадратными скобками обозначены формы облаков: Ci - перистые, Cs - перисто-слоистые, Cc - перисто-кучевые, Ac - высококучевые, As - высокослоистые, Sc - слоисто-кучевые, Ns - слоисто-дождевые, Cu - кучевые, Cb - кучево-дождевые. Подробнее классификацию облаков см. в Атласе облаков (PDF).
T - Температура воздуха - температура, измеренная на высоте 2 м над землей.
Td - Температура точки росы - температура, при понижении до которой содержащийся в воздухе водяной пар достигнет насыщения.
f - Относительная влажность воздуха - влажноcть воздуха, измеренная на высоте 2 м над землей.
Te - Эффективная температура - температура, которую ощущает одетый по сезону человек в тени. Характеристика душности погоды. При расчете учитывается влияние влажности воздуха и скорости ветра на теплоощущения человека.
Tes - Эффективная температура на солнце - температура, которую ощущает человек, с поправкой на солнечный нагрев. Характеристика знойности погоды. Зависит от высоты солнца над горизонтом, облачности и скорости ветра. Ночью, в пасмурную погоду, а также при ветре 12 м/с и более поправка равна нулю.
P - Атмосферное давление - приведенное к уровню моря атмосферное давление.
Po - Атмосферное давление - измеренное на уровне метеостанции атмосферное давление.
Tmin - Минимальная температура - минимум температуры воздуха на высоте 2 м над землей.
Tmax - Максимальная температура - максимум температуры воздуха на высоте 2 м над землей.
R - Количество осадков - Количество выпавших осадков за период времени, мм. При наведении курсора мыши на число - период времени, за который выпало указанное количество осадков.
R24 - Количество осадков - Количество выпавших осадков за 24 часа, мм.
S - Снежный покров - Высота снежного покрова, см. При наведении курсора мыши на число - состояние снежного покрова и степень покрытия местности в баллах.